This demonstration page uses our WeatherBlox Daily Observations layout. Learn more.

Left ArrowRight Arrow

40.92945, -100.16068

Hourly Observations for February 10, 2015

Temp ( °F °C ) Dew Point ( °F °C ) Humidity (%) Winds ( mph kmh ) Pressure ( in mb ) Visibility ( mi km ) Precip ( " mm )
12:15 am 00:15 Cloudy with Mist and Fog 38 3.6 37 3 96 96 S 16 26 30.03 1017 2 3 N/A
12:35 am 00:35 Cloudy with Mist and Fog 39 3.7 38 3.1 96 96 SSE 16 26 30.03 1017 2 3 N/A
12:55 am 00:55 Cloudy with Mist and Fog 39 3.7 38 3.1 96 96 S 12 19 30.03 1017 2 2 N/A
1:15 am 01:15 Cloudy with Mist and Fog 39 3.7 38 3.1 96 96 S 13 20 30.03 1017 1 2 N/A
1:35 am 01:35 Cloudy with Mist and Fog 39 3.8 38 3.2 96 96 S 9 15 30.03 1017 1 2 N/A
1:55 am 01:55 Cloudy with Mist and Fog 39 4 38 3.5 97 97 SSW 7 11 30.03 1017 1 2 N/A
2:15 am 02:15 Cloudy with Mist and Fog 40 4.3 39 3.7 96 96 SW 9 15 30.06 1018 2 3 N/A
2:35 am 02:35 Cloudy with Mist and Fog 40 4.5 39 4 97 97 S 10 17 30.03 1017 3 4 N/A
2:55 am 02:55 Cloudy with Mist and Fog 40 4.7 39 4.1 96 96 S 14 22 30.03 1017 3 5 N/A
3:15 am 03:15 Cloudy with Mist and Fog 41 5 40 4.4 96 96 S 18 30 30.00 1016 4 6 N/A
3:35 am 03:35 Cloudy with Mist and Fog 41 5.1 40 4.4 95 95 SSW 16 26 30.00 1016 4 6 N/A
3:55 am 03:55 Cloudy with Mist and Fog 41 5 39 4 93 93 SSW 17 28 30.00 1016 4 6 N/A
4:15 am 04:15 Mostly Cloudy with Mist and Fog 40 4.7 39 3.7 93 93 SSW 12 19 30.00 1016 4 6 N/A
4:35 am 04:35 Mostly Cloudy with Mist and Fog 41 4.8 39 3.7 93 93 S 8 13 30.00 1016 4 6 N/A
4:55 am 04:55 Cloudy with Mist and Fog 40 4.6 38 3.5 93 93 SSW 14 22 29.97 1015 4 6 N/A
5:15 am 05:15 Cloudy with Mist and Fog 40 4.3 38 3.3 93 93 SSW 12 19 29.97 1015 3 5 N/A
5:35 am 05:35 Cloudy with Mist and Fog 40 4.2 38 3.3 94 94 SSW 10 17 29.97 1015 3 5 N/A
5:55 am 05:55 Cloudy with Mist and Fog 39 4.1 38 3.2 94 94 SSW 6 9 29.97 1015 3 5 N/A
6:15 am 06:15 Cloudy with Mist and Fog 39 4 38 3.2 95 95 SSW 12 19 30.00 1016 3 5 N/A
6:35 am 06:35 Cloudy with Mist and Fog 39 4 38 3.2 95 95 SSW 6 9 30.00 1016 3 4 N/A
6:55 am 06:55 Cloudy with Mist and Fog 39 4 38 3.2 95 95 SW 10 17 30.00 1016 2 3 N/A
7:15 am 07:15 Cloudy with Mist and Fog 39 3.9 38 3.1 95 95 SSW 12 19 30.00 1016 2 2 N/A
7:35 am 07:35 Cloudy with Mist and Fog 39 3.8 38 3.1 95 95 SW 10 17 30.00 1016 1 2 N/A
7:55 am 07:55 Cloudy with Mist and Fog 39 3.7 38 3.1 96 96 SSW 9 15 30.03 1017 1 1 N/A
8:15 am 08:15 Cloudy with Fog 39 3.7 38 3.1 96 96 SW 8 13 30.03 1017 1 1 N/A
8:35 am 08:35 Cloudy with Fog 39 3.8 38 3.2 96 96 SSW 7 11 30.00 1016 0 0 N/A
8:55 am 08:55 Cloudy with Mist and Fog 39 3.7 38 3.1 96 96 SSW 10 17 30.00 1016 1 1 N/A
9:15 am 09:15 Cloudy with Mist and Fog 39 3.9 38 3.3 96 96 SW 8 13 30.03 1017 1 2 N/A
9:35 am 09:35 Cloudy with Mist and Fog 40 4.2 39 3.7 97 97 WSW 6 9 30.03 1017 3 5 N/A
9:55 am 09:55 Cloudy with Mist and Fog 41 5.2 40 4.6 96 96 WSW 5 7 30.03 1017 5 8 N/A
10:15 am 10:15 Mostly Cloudy 43 6.1 40 4.3 88 88 WSW 5 7 30.03 1017 10 16 N/A
10:35 am 10:35 Sunny 45 7.1 40 4.3 83 83 W 6 9 30.00 1016 10 16 N/A
10:55 am 10:55 Sunny 47 8.2 40 4.5 78 78 WSW 7 11 30.00 1016 10 16 N/A
11:15 am 11:15 Sunny 48 9.1 40 4.3 72 72 W 5 7 29.97 1015 10 16 N/A
11:35 am 11:35 Sunny 51 10.4 40 4.6 68 68 WSW 6 9 29.94 1014 10 16 N/A
11:55 am 11:55 Sunny 53 11.8 40 4.3 60 60 W 6 9 29.94 1014 10 16 N/A
12:15 pm 12:15 Sunny 55 12.7 40 4.2 57 57 NW 8 13 29.91 1013 10 16 N/A
12:35 pm 12:35 Sunny 56 13.2 39 4 54 54 WNW 5 7 29.91 1013 10 16 N/A
12:55 pm 12:55 Sunny 57 14.1 39 4.1 51 51 W 5 7 29.91 1013 10 16 N/A
1:15 pm 13:15 Sunny 59 15 40 4.2 49 49 W 5 7 29.88 1012 10 16 N/A
1:35 pm 13:35 Sunny 60 15.6 39 3.8 46 46 NW 5 7 29.85 1011 10 16 N/A
1:55 pm 13:55 Sunny 61 15.9 39 3.9 45 45 WNW 6 9 29.85 1011 10 16 N/A
2:15 pm 14:15 Sunny 62 16.5 39 4.1 44 44 NW 6 9 29.85 1011 10 16 N/A
2:35 pm 14:35 Sunny 62 16.5 39 3.7 43 43 Calm 29.83 1010 10 16 N/A
2:55 pm 14:55 Sunny 64 17.7 39 3.7 40 40 WNW 7 11 29.85 1011 10 16 N/A
3:15 pm 15:15 Sunny 65 18.2 38 3.4 38 38 NW 10 17 29.85 1011 10 16 N/A
3:35 pm 15:35 Partly Cloudy 66 18.7 36 2.3 34 34 NW 9 15 29.83 1010 10 16 N/A
3:55 pm 15:55 Mostly Cloudy 65 18.6 35 1.6 32 32 NNW 12 19 29.83 1010 10 16 N/A
4:15 pm 16:15 Mostly Cloudy 65 18.5 35 1.7 33 33 NNW 13 20 29.83 1010 10 16 N/A
4:35 pm 16:35 Partly Cloudy 65 18.5 35 1.6 32 32 NNW 13 20 29.83 1010 10 16 N/A
4:55 pm 16:55 Partly Cloudy 64 18 35 1.6 33 33 NNW 10 17 29.85 1011 10 16 N/A
5:15 pm 17:15 Partly Cloudy 61 16 37 2.5 41 41 NNW 8 13 29.85 1011 10 16 N/A
5:35 pm 17:35 Partly Cloudy 61 15.9 37 2.6 41 41 N 10 17 29.85 1011 10 16 N/A
5:55 pm 17:55 Mostly Cloudy 59 15.2 37 2.6 43 43 N 15 24 29.91 1013 10 16 N/A
6:15 pm 18:15 Mostly Cloudy 56 13.4 38 3.3 51 51 N 10 17 29.94 1014 10 16 N/A
6:35 pm 18:35 Partly Cloudy 54 12.2 38 3.2 54 54 N 9 15 29.97 1015 10 16 N/A
6:55 pm 18:55 Partly Cloudy 50 10 37 3 62 62 N 9 15 29.97 1015 10 16 N/A
7:15 pm 19:15 Partly Cloudy 48 9 38 3.1 67 67 N 8 13 30.03 1017 10 16 N/A
7:35 pm 19:35 Mostly Cloudy 48 9 38 3.5 69 69 N 7 11 30.03 1017 10 16 N/A
7:55 pm 19:55 Mostly Cloudy 46 8 37 2.9 70 70 N 7 11 30.03 1017 10 16 N/A
8:15 pm 20:15 Clear 44 6.4 36 2.3 75 75 NNW 7 11 30.09 1019 10 16 N/A
8:35 pm 20:35 Clear 42 5.5 36 2 78 78 N 6 9 30.09 1019 10 16 N/A
8:55 pm 20:55 Clear 47 8.2 38 3.1 71 71 N 15 24 30.06 1018 10 16 N/A
9:15 pm 21:15 Clear 47 8.6 38 3.1 69 69 N 14 22 30.06 1018 10 16 N/A
9:35 pm 21:35 Clear 47 8.4 38 3.3 71 71 N 16 26 30.09 1019 10 16 N/A
9:55 pm 21:55 Clear 46 8 39 3.8 75 75 N 15 24 30.09 1019 10 16 N/A
10:15 pm 22:15 Clear 45 7.3 39 3.7 78 78 NNE 13 20 30.15 1021 10 16 N/A
10:35 pm 22:35 Clear 44 6.6 38 3.5 81 81 N 12 19 30.15 1021 10 16 N/A
10:55 pm 22:55 Partly Cloudy 42 5.7 38 3.1 84 84 N 8 13 30.15 1021 10 16 N/A
11:15 pm 23:15 Partly Cloudy 42 5.6 38 3.1 84 84 NNW 9 15 30.18 1022 10 16 N/A
11:35 pm 23:35 Clear 42 5.5 38 3.1 85 85 N 12 19 30.18 1022 10 16 N/A
11:55 pm 23:55 Clear 41 5 36 2.2 82 82 N 10 17 30.18 1022 10 16 N/A

Powered by AerisWeather